Theta_e
305 306 306 306 306 306 305 304 304 304 304 303 304 305 305 305 306 307 308 310 311 315 319 322 323 334 329 326 325 322 316 317 313 313 316 319 322 324 317 323 320 318 315
305 305 305 305 306 306 304 302 303 302 302 301 301 301 302 303 303 303 304 306 308 311 316 319 322 326 325 321 321 316 315 312 313 310 314 315 318 322 320 320 317 316 315
304 304 305 303 304 304 304 302 300 300 299 299 300 299 298 298 298 301 303 304 307 310 314 317 319 326 321 320 319 316 317 315 317 313 313 314 317 318 317 317 316 316 315
303 304 304 303 301 303 304 303 300 300 298 298 298 297 298 297 296 299 301 304 305 307 313 318 315 325 321 321 321 319 321 318 316 312 311 309 313 313 313 310 310 312 312
302 303 303 304 302 304 303 303 301 300 298 298 297 297 296 296 297 295 295 295 302 305 311 317 314 325 325 325 325 322 324 321 314 311 307 306 307 308 309 313 312 312 313
302 302 303 304 302 303 303 301 301 300 297 297 297 296 294 295 295 295 296 295 298 304 307 315 314 322 324 321 321 322 326 322 317 307 307 307 309 310 313 310 309 307 306
301 302 302 302 302 301 301 301 299 300 299 295 297 297 294 294 294 294 295 298 301 303 307 310 317 320 323 324 316 315 315 312 316 312 311 314 312 314 313 311 311 310 309
300 301 301 302 299 298 300 299 299 299 299 297 294 298 296 294 294 293 294 301 309 309 308 311 311 316 320 317 313 311 312 310 311 312 316 317 317 317 315 314 312 311 311
300 300 301 301 298 296 296 295 297 298 297 298 295 294 296 294 293 292 291 296 297 309 311 315 312 317 309 305 308 306 306 306 306 305 304 302 301 302 310 310 307 306 306
299 300 301 301 300 296 296 295 296 298 297 296 296 295 294 293 293 292 291 292 294 297 304 310 307 311 301 302 305 303 301 302 302 300 301 301 304 303 301 312 308 306 307
300 301 301 301 301 297 296 296 295 297 297 295 296 295 295 292 292 292 291 288 292 295 295 298 299 299 298 298 301 301 299 300 300 301 300 300 303 300 305 306 307 308 305
300 300 300 301 300 297 296 298 296 296 295 295 296 294 295 293 292 291 291 290 291 293 293 296 295 295 295 296 297 296 297 299 300 300 299 300 301 301 306 305 307 310 310
300 299 299 300 299 297 299 297 298 297 296 295 295 291 289 293 291 291 291 291 293 291 294 296 295 295 295 296 296 297 298 299 299 298 299 302 304 303 304 305 306 305 306
299 298 298 298 297 298 297 297 295 298 295 295 293 292 292 291 290 290 291 291 292 294 294 294 295 295 295 296 296 298 299 300 299 300 300 302 303 302 301 305 303 302 302
299 298 298 297 297 296 296 295 294 295 291 290 290 291 292 290 290 289 290 290 291 292 294 295 294 294 295 296 297 297 298 299 298 300 299 298 298 298 299 300 300 300 299
300 298 297 296 296 296 295 295 292 291 291 290 289 289 290 288 288 288 288 288 289 290 294 292 293 293 294 296 296 297 298 297 298 298 298 297 296 297 297 299 300 299 298
300 299 298 296 296 295 295 294 293 294 291 290 289 289 288 287 288 288 288 287 289 290 290 290 290 291 292 293 294 295 295 296 298 297 297 296 297 297 297 297 297 298 297
302 292 298 297 297 295 295 295 294 293 291 292 290 289 288 287 287 288 287 290 292 291 290 289 289 290 290 291 293 293 294 295 295 296 296 297 298 297 296 296 296 295 295
301 300 299 298 297 295 296 295 294 293 293 292 292 290 289 287 288 288 288 291 291 290 290 289 290 290 290 290 291 293 293 293 293 295 295 295 296 296 295 295 295 289 291
302 294 294 299 297 296 296 295 293 293 293 291 290 290 289 288 290 289 290 291 291 290 289 288 288 289 289 289 290 291 291 292 293 293 294 294 294 294 293 293 294 293 294
302 300 291 299 298 297 295 294 294 293 292 291 291 289 282 287 289 290 290 290 291 290 289 288 288 288 288 289 289 289 289 291 292 292 292 293 293 292 293 293 293 294 295
301 300 298 297 298 297 295 295 294 292 292 291 291 290 285 290 290 290 290 290 291 292 291 289 287 288 288 288 288 287 287 288 291 291 292 292 292 292 292 292 292 292 294
297 298 298 297 297 293 296 295 294 293 292 291 290 289 290 290 290 290 290 291 291 292 292 290 289 288 289 289 289 289 288 288 290 292 291 292 292 292 292 291 291 291 292
297 297 298 295 295 296 295 294 294 290 291 290 290 289 290 290 290 290 290 291 291 292 292 291 289 288 288 289 289 289 289 290 290 290 290 291 290 290 291 292 292 291 292
299 298 296 295 295 294 294 293 292 292 290 289 289 289 290 290 290 290 290 291 291 290 291 291 290 289 289 289 289 289 287 284 287 285 288 290 290 290 290 289 290 290 291
299 298 296 296 294 293 293 292 291 291 289 289 289 290 290 290 290 290 290 290 289 290 290 291 291 291 290 289 289 285 284 284 285 284 287 288 288 289 289 289 290 290 290
Wind_Speed
14 14 15 15 18 17 16 19 20 20 20 20 21 21 19 19 19 17 19 22 24 22 20 20 20 18 11 10 10 12 10 10 7 5 6 8 13 12 10 9 10 11 11
13 13 13 15 17 17 18 19 20 21 20 20 20 21 20 21 19 19 20 19 23 24 23 21 19 9 14 13 12 14 13 10 8 9 9 9 12 10 11 10 8 8 6
13 13 13 15 17 18 18 18 18 20 20 20 21 20 19 18 19 19 22 21 21 24 25 22 19 18 16 12 13 12 12 9 9 8 8 8 11 11 10 9 9 7 7
12 12 12 14 14 15 17 18 18 18 20 20 21 21 20 19 19 18 22 18 20 22 25 23 20 21 19 18 16 16 13 14 13 10 8 10 8 9 9 9 8 9 7
12 12 12 13 14 15 17 18 18 17 18 17 20 19 21 20 14 20 21 21 22 21 25 25 21 26 27 23 14 16 18 16 15 13 11 10 11 11 10 8 9 7 7
12 12 12 13 14 16 17 19 18 18 17 17 18 20 20 14 28 33 32 23 21 22 22 24 20 28 26 27 26 25 22 19 18 12 10 13 12 12 11 10 8 7 7
12 12 12 13 14 15 17 18 19 19 17 15 18 21 22 19 31 35 40 23 20 19 22 20 18 16 21 19 20 14 23 17 17 17 15 14 15 12 12 12 9 7 4
13 13 14 13 13 15 16 18 19 18 19 17 17 21 21 17 34 37 42 24 22 18 20 20 19 19 15 15 13 11 16 14 12 10 13 13 12 13 12 8 10 6 2
13 14 14 15 13 13 15 16 18 19 16 18 14 19 22 23 35 38 36 20 20 16 16 21 18 17 14 17 15 14 11 10 14 20 20 19 16 10 8 8 7 7 5
14 14 14 14 12 12 14 15 16 17 17 14 19 17 23 23 31 37 34 17 19 15 9 2 4 9 15 14 14 16 12 7 14 16 14 13 10 10 6 1 5 4 3
13 13 13 13 13 10 13 10 12 17 17 18 18 18 19 23 25 36 38 19 17 13 10 9 11 27 25 18 16 12 16 10 10 10 11 9 7 7 5 4 3 2 4
13 13 13 13 12 9 11 13 13 15 16 17 16 14 14 18 29 31 35 33 33 15 14 11 17 32 28 27 20 26 24 10 5 4 6 5 7 6 8 6 4 1 2
12 12 13 13 13 9 11 11 10 13 12 13 12 12 13 14 15 30 30 30 26 17 16 20 26 24 28 22 24 22 17 8 4 3 1 3 4 7 6 4 4 3 4
12 12 12 12 12 11 9 7 8 8 11 11 12 12 12 13 14 15 14 14 20 14 17 15 20 22 23 19 14 11 8 5 3 1 5 3 4 5 4 3 3 3 3
11 11 11 11 12 11 11 9 9 11 8 11 12 13 12 13 15 21 18 14 13 14 12 10 9 9 7 7 7 7 6 4 4 3 3 4 4 4 4 3 2 2 3
12 11 9 10 10 10 10 11 4 2 2 1 5 8 12 14 21 23 24 22 19 15 10 9 9 9 7 7 7 7 6 5 3 4 4 3 2 3 4 3 3 2 3
10 11 10 9 9 10 10 11 12 9 4 8 2 5 8 14 19 19 20 21 9 12 10 8 8 8 7 7 6 5 5 4 4 3 3 1 1 3 3 2 2 1 3
9 4 10 9 8 9 9 10 10 11 12 11 3 4 9 17 18 13 16 14 9 10 9 9 8 7 7 6 5 4 4 3 3 3 2 1 1 1 1 1 1 2 3
7 7 10 9 8 8 9 10 11 12 11 11 11 10 12 19 14 8 9 10 9 10 9 8 8 7 7 6 7 6 5 4 4 2 2 1 2 3 2 3 3 2 2
6 2 8 9 9 9 9 8 8 10 11 10 10 11 13 14 11 10 10 10 9 8 8 8 7 7 6 6 5 3 4 4 2 2 2 2 2 2 3 3 4 3 3
6 5 4 9 8 9 9 10 10 10 11 10 10 8 5 12 11 11 11 10 9 9 9 9 8 7 7 7 7 6 6 4 5 4 3 2 3 3 2 3 5 4 2
5 6 7 8 9 9 10 9 8 8 10 11 11 10 4 9 10 11 11 11 10 9 8 9 7 8 7 7 7 6 6 7 6 5 4 3 3 3 3 3 4 4 4
3 8 8 7 9 9 10 10 9 9 10 11 10 11 11 10 10 11 11 10 10 10 8 8 8 8 7 6 6 5 5 5 6 6 5 5 4 3 3 3 5 3 4
6 8 8 7 8 10 10 10 10 9 10 10 10 10 10 10 10 11 11 11 11 11 10 8 8 10 9 9 7 7 7 6 5 5 7 6 5 4 5 4 4 5 5
7 7 6 8 9 9 9 9 10 10 10 10 10 10 10 10 10 11 11 10 10 11 12 11 8 11 12 13 12 12 6 5 8 8 8 9 8 9 7 5 6 6 7
1 4 6 8 8 8 8 8 9 10 10 10 10 10 10 10 10 10 10 10 11 12 13 10 11 12 14 12 11 7 5 6 9 5 8 9 8 8 8 7 9 7 6
Wind_Direction
357 351 351 347 355 348 344 342 339 332 326 322 318 315 313 307 300 290 280 279 274 272 266 263 262 239 208 206 211 209 203 200 187 179 167 164 177 180 153 186 151 207 174
352 347 349 348 345 348 350 343 338 335 331 324 319 314 307 307 297 289 284 272 272 273 269 261 254 225 212 203 202 203 209 200 189 155 163 158 185 185 166 179 196 208 234
346 346 356 349 345 346 348 345 340 336 331 327 327 324 321 310 306 297 284 271 262 266 266 258 257 227 213 207 204 199 200 185 184 162 156 160 180 181 163 196 196 202 224
345 346 357 345 345 345 347 346 342 339 334 329 334 329 322 318 309 297 320 273 263 259 264 259 255 231 214 209 200 193 192 187 178 152 152 163 165 171 176 180 195 212 203
345 343 351 350 337 350 350 347 345 340 333 328 330 331 325 324 320 320 317 304 286 257 262 262 248 238 219 212 195 188 191 192 183 174 154 164 172 172 195 192 208 175 179
340 344 343 347 344 348 346 346 342 343 332 329 336 339 329 323 321 320 318 303 280 262 255 257 245 248 222 212 206 197 187 182 187 178 165 176 180 169 192 174 188 185 186
342 343 344 347 350 346 341 346 347 342 340 337 330 342 337 328 330 327 321 303 270 248 242 250 256 251 210 210 204 209 172 182 194 173 173 185 171 171 170 181 185 184 202
348 345 343 347 352 339 343 342 344 344 344 351 339 334 338 336 340 336 334 323 309 245 229 235 239 255 193 187 176 181 173 168 163 166 155 166 171 164 170 179 161 161 156
350 346 342 342 355 337 341 345 339 341 346 347 348 334 340 344 348 347 347 339 339 288 233 230 226 239 172 155 159 159 159 134 91 85 86 88 85 75 137 155 164 183 194
347 342 340 341 353 344 342 343 340 342 352 348 348 347 342 344 350 351 356 343 355 342 353 116 136 181 131 136 144 141 126 90 114 108 100 92 107 92 54 251 157 211 214
342 339 340 343 348 357 334 344 338 345 352 351 351 348 347 349 350 357 356 355 357 347 3 39 75 90 88 91 97 100 95 84 70 96 101 116 128 132 158 211 197 150 222
341 342 343 342 344 1 341 339 344 349 350 348 350 348 349 352 355 358 357 357 356 4 16 36 60 77 76 79 83 75 75 88 71 86 113 147 143 170 129 167 122 58 351
343 346 347 339 344 13 339 332 340 349 351 347 347 347 348 351 355 359 355 355 2 8 19 37 50 59 75 69 67 78 83 71 39 106 142 118 115 81 96 133 96 161 234
347 350 353 341 341 348 335 7 326 357 351 351 350 350 349 351 358 353 353 352 356 10 22 30 43 48 59 68 66 66 74 97 162 153 105 105 129 126 105 120 198 181 236
350 353 0 341 350 345 350 354 350 1 358 350 355 350 353 352 353 341 347 352 356 358 16 26 37 54 46 70 91 102 115 140 82 61 111 119 87 107 130 151 183 194 239
345 359 351 335 345 346 345 342 148 198 270 309 7 352 350 354 337 336 339 342 354 353 19 21 28 39 34 41 62 76 76 71 66 92 90 89 136 161 137 177 196 233 255
338 354 334 338 343 345 344 342 341 353 226 188 96 347 359 339 331 328 329 329 356 358 30 28 20 16 22 31 33 41 59 54 50 69 105 122 185 94 208 188 192 246 225
327 207 339 345 341 341 337 339 338 343 343 345 30 11 17 347 324 314 317 330 19 22 13 15 16 18 6 358 7 21 36 37 35 46 66 16 356 76 266 289 261 264 287
308 347 340 336 348 324 340 338 348 334 340 341 341 348 12 341 304 296 320 4 14 8 9 2 357 357 0 357 355 356 5 23 351 352 359 349 336 324 313 310 310 297 305
277 212 276 324 341 344 344 343 341 324 337 343 342 350 355 337 348 358 359 360 5 6 359 354 348 347 340 332 327 319 354 342 327 295 278 286 319 318 310 316 284 302 283
292 309 291 314 342 345 344 333 344 339 335 339 340 11 341 319 341 347 350 353 354 2 356 350 344 342 335 339 346 342 336 322 301 323 333 325 346 307 276 252 273 304 317
276 320 312 320 332 346 339 329 346 332 330 336 337 344 299 327 342 342 346 342 347 353 357 346 341 336 335 333 338 332 321 310 313 339 326 311 310 288 280 302 284 275 286
90 277 295 329 331 337 325 343 333 344 337 336 339 339 341 342 339 338 337 338 338 337 354 341 333 327 328 324 313 305 304 300 307 315 311 298 289 300 309 283 291 301 286
247 273 304 334 337 325 341 332 334 339 340 338 340 339 335 336 333 335 333 334 334 336 335 344 332 325 325 324 318 309 305 316 327 309 302 294 287 291 285 275 271 295 289
242 272 334 332 342 342 337 345 338 337 339 339 339 338 336 335 331 334 333 333 334 332 328 326 327 322 319 315 306 303 338 2 312 330 297 283 282 281 265 277 271 271 276
209 323 345 352 347 350 343 342 332 337 341 332 339 335 337 330 332 333 328 332 333 322 320 321 319 321 318 313 315 346 319 299 292 293 292 276 261 258 258 250 256 252 259